This is the latest recevied weather packets stored in our database for station/object DB0MW-13. If no packets are shown the sender has not sent any weather packets the latest 10 day(s).
| Time | Temp. | Humidity | Pressure | Rain* | Wind** | Luminosity | Snow |
|---|---|---|---|---|---|---|---|
| 1777396200 | 20° C | 38% | 1019.1 hPa | 0 mm | - | - | - |
| 1777395600 | 20.56° C | 38% | 1019.1 hPa | 0 mm | - | - | - |
| 1777395300 | 20.56° C | 38% | 1018.8 hPa | 0 mm | - | - | - |
| 1777393800 | 21.67° C | 39% | 1018.9 hPa | 0 mm | - | - | - |
| 1777393500 | 21.67° C | 38% | 1018.8 hPa | 0 mm | - | - | - |
| 1777392900 | 22.22° C | 38% | 1018.7 hPa | 0 mm | - | - | - |
| 1777392000 | 22.78° C | 36% | 1018.6 hPa | 0 mm | - | - | - |
| 1777391700 | 23.33° C | 36% | 1018.4 hPa | 0 mm | - | - | - |
| 1777391101 | 23.33° C | 35% | 1018.3 hPa | 0 mm | - | - | - |
| 1777390501 | 23.33° C | 27% | 1018.6 hPa | 0 mm | - | - | - |
| 1777390201 | 23.33° C | 27% | 1018.5 hPa | 0 mm | - | - | - |
| 1777389900 | 23.89° C | 28% | 1018.4 hPa | 0 mm | - | - | - |
| 1777389600 | 23.89° C | 28% | 1018.4 hPa | 0 mm | - | - | - |
| 1777389300 | 23.89° C | 28% | 1018.7 hPa | 0 mm | - | - | - |
| 1777389000 | 23.89° C | 28% | 1018.5 hPa | 0 mm | - | - | - |
| 1777388100 | 23.89° C | 28% | 1018.4 hPa | 0 mm | - | - | - |
| 1777386900 | 23.89° C | 27% | 1018.6 hPa | 0 mm | - | - | - |
| 1777386600 | 23.89° C | 28% | 1018.7 hPa | 0 mm | - | - | - |
| 1777385700 | 23.89° C | 29% | 1018.7 hPa | 0 mm | - | - | - |
| 1777385400 | 23.89° C | 28% | 1019 hPa | 0 mm | - | - | - |
| 1777382701 | 23.33° C | 26% | 1019.3 hPa | 0 mm | - | - | - |
| 1777382401 | 23.33° C | 27% | 1019.3 hPa | 0 mm | - | - | - |
| 1777381801 | 23.33° C | 25% | 1019.5 hPa | 0 mm | - | - | - |
| 1777381501 | 23.33° C | 24% | 1019.5 hPa | 0 mm | - | - | - |
| 1777381201 | 23.33° C | 24% | 1019.2 hPa | 0 mm | - | - | - |
* Rain latest hour (hover to see other rain measurements)
** Current wind speed in m/s (hover to see current wind gust speed)